W1MWS-13 Weather Reports


time (UTC)temp
C
wind
direction
speed
KPH
gust
KPH
rain 1hr
cm
rain 24hr
cm
rain mn
cm
humidity
%
barometer
mb
20260505003347 17 158 16.1 19.3 0.00 0.00 0.00 54 1008.3
20260505002818 17 45 9.7 12.9 0.00 0.00 0.00 54 1008.0
20260505002328 18 180 9.7 11.3 0.00 0.00 0.00 54 1008.0
20260505001819 18 79 8.0 9.7 0.00 0.00 0.00 53 1007.7
20260505001327 18 158 11.3 12.9 0.00 0.00 0.00 53 1007.7
20260505000818 18 297 9.7 11.3 0.00 0.00 0.00 52 1007.3
20260505000327 18 23 8.0 9.7 0.00 0.00 0.00 52 1007.3
20260504235818 18 146 6.4 6.4 0.00 0.00 0.00 51 1007.3
20260504235328 19 73 9.7 11.3 0.00 0.00 0.00 50 1007.1
20260504234818 19 69 8.0 12.9 0.00 0.00 0.00 50 1007.1
20260504234326 20 113 8.0 9.7 0.00 0.00 0.00 48 1006.9
20260504233817 20 106 9.7 12.9 0.00 0.00 0.00 47 1006.9
20260504233320 20 113 4.8 6.4 0.00 0.00 0.00 43 1006.9
20260504232837 21 45 8.0 11.3 0.00 0.00 0.00 43 1006.5
20260504232326 21 158 4.8 6.4 0.00 0.00 0.00 42 1006.5
20260504231837 21 138 14.5 16.1 0.00 0.00 0.00 42 1006.4
20260504231319 21 139 9.7 11.3 0.00 0.00 0.00 42 1006.4
20260504230828 -17 135 14.5 14.5 0.00 0.00 0.00 1006.3
20260504230317 21 139 6.4 8.0 0.00 0.00 0.00 41 1006.3
20260504225823 21 113 11.3 14.5 0.00 0.00 0.00 40 1006.3
20260504225351 21 113 9.7 11.3 0.00 0.00 0.00 40 1006.1
20260504224822 22 135 6.4 8.0 0.00 0.00 0.00 40 1006.1
20260504224350 22 6.4 8.0 0.00 0.00 0.00 40 1006.0
20260504223821 22 131 8.0 9.7 0.00 0.00 0.00 40 1006.0
20260504223331 22 152 8.0 9.7 0.00 0.00 0.00 40 1006.0
20260504222822 22 141 8.0 11.3 0.00 0.00 0.00 40 1006.1
20260504222411 22 251 6.4 8.0 0.00 0.00 0.00 40 1006.1
20260504221822 22 180 8.0 9.7 0.00 0.00 0.00 40 1005.9
20260504221351 22 135 11.3 16.1 0.00 0.00 0.00 40 1005.9
20260504220823 22 180 4.8 8.0 0.00 0.00 0.00 40 1006.1
20260504220345 22 150 6.4 9.7 0.00 0.00 0.00 40 1006.1
20260504215822 22 158 9.7 11.3 0.00 0.00 0.00 40 1006.1
20260504215320 22 203 8.0 9.7 0.00 0.00 0.00 39 1005.9
20260504214817 22 166 12.9 16.1 0.00 0.00 0.00 39 1005.9
20260504214352 22 144 6.4 9.7 0.00 0.00 0.00 39 1006.0
20260504213817 22 142 9.7 12.9 0.00 0.00 0.00 39 1006.0
20260504213345 22 11.3 11.3 0.00 0.00 0.00 39 1005.9
20260504212816 22 190 9.7 12.9 0.00 0.00 0.00 39 1005.9
20260504212325 23 180 11.3 14.5 0.00 0.00 0.00 38
20260504211856 23 223 14.5 17.7 0.00 0.00 0.00 38 1006.1
20260504211325 23 113 9.7 12.9 0.00 0.00 0.00 37 1006.1
20260504210816 23 151 8.0 9.7 0.00 0.00 0.00 38 1006.0
20260504210319 23 203 9.7 11.3 0.00 0.00 0.00 38 1006.0
20260504205849 23 214 11.3 11.3 0.00 0.00 0.00 38 1006.0
20260504205319 23 203 9.7 11.3 0.00 0.00 0.00 38 1005.9
20260504204828 23 142 9.7 12.9 0.00 0.00 0.00 38 1005.9
20260504204319 23 113 6.4 9.7 0.00 0.00 0.00 38 1006.0
20260504203828 24 203 8.0 8.0 0.00 0.00 0.00 37 1006.0
20260504203339 24 135 4.8 6.4 0.00 0.00 0.00 38 1006.0
20260504202828 23 113 11.3 12.9 0.00 0.00 0.00 38 1006.0
20260504202319 22 270 8.0 9.7 0.00 0.00 0.00 39 1006.0
20260504201822 22 89 8.0 11.3 0.00 0.00 0.00 39 1006.1
20260504201319 22 113 6.4 9.7 0.00 0.00 0.00 39 1006.1
20260504200816 22 165 9.7 12.9 0.00 0.00 0.00 38 1006.2
20260504200319 22 203 8.0 9.7 0.00 0.00 0.00 38 1006.2
20260504195848 22 135 11.3 12.9 0.00 0.00 0.00 38 1006.2
20260504195318 22 152 16.1 20.9 0.00 0.00 0.00 38 1006.1
20260504194827 22 113 8.0 8.0 0.00 0.00 0.00 38 1006.1
20260504194318 22 234 6.4 9.7 0.00 0.00 0.00 37 1006.3
20260504193827 22 270 12.9 16.1 0.00 0.00 0.00 37 1006.3
20260504193318 22 154 17.7 19.3 0.00 0.00 0.00 37 1006.3
20260504192848 22 158 9.7 14.5 0.00 0.00 0.00 37 1006.2
20260504192319 23 135 11.3 11.3 0.00 0.00 0.00 36 1006.2
20260504191848 24 113 12.9 14.5 0.00 0.00 0.00 36 1006.1
20260504191319 24 93 11.3 11.3 0.00 0.00 0.00 35 1006.1
20260504190828 24 158 9.7 11.3 0.00 0.00 0.00 36 1006.5
20260504190319 23 110 11.3 16.1 0.00 0.00 0.00 36 1006.5
20260504185828 23 135 12.9 16.1 0.00 0.00 0.00 36 1006.5
20260504185338 23 171 16.1 19.3 0.00 0.00 0.00 36 1006.4
20260504184827 23 158 6.4 8.0 0.00 0.00 0.00 36 1006.4
20260504184319 23 253 8.0 9.7 0.00 0.00 0.00 36 1006.8
20260504183822 22 199 9.7 11.3 0.00 0.00 0.00 36 1006.8
20260504183318 22 147 12.9 16.1 0.00 0.00 0.00 36 1006.7
20260504182826 23 158 17.7 22.5 0.00 0.00 0.00 36 1006.7
20260504182317 23 68 9.7 12.9 0.00 0.00 0.00 36 1006.7
20260504181826 22 203 6.4 8.0 0.00 0.00 0.00 37 1006.8
20260504181317 22 259 9.7 14.5 0.00 0.00 0.00 36 1006.8
20260504180826 22 190 14.5 16.1 0.00 0.00 0.00 36 1006.5
20260504180324 22 203 11.3 14.5 0.00 0.00 0.00 36 1006.5
20260504175841 22 113 9.7 9.7 0.00 0.00 0.00 36 1006.5
20260504175330 22 0 9.7 12.9 0.00 0.00 0.00 37 1006.9
20260504174836 21 165 9.7 9.7 0.00 0.00 0.00 37 1006.9
20260504174345 21 113 16.1 19.3 0.00 0.00 0.00 36 1007.2
20260504173816 22 135 12.9 16.1 0.00 0.00 0.00 37 1007.2
20260504173325 22 153 11.3 16.1 0.00 0.00 0.00 37 1007.2
20260504172816 22 113 19.3 30.6 0.00 0.00 0.00 37 1007.2
20260504172321 22 114 14.5 17.7 0.00 0.00 0.00 38 1007.2
20260504171828 21 113 12.9 17.7 0.00 0.00 0.00 37 1007.3
20260504171318 21 125 17.7 24.1 0.00 0.00 0.00 38 1007.3
20260504170828 21 225 12.9 14.5 0.00 0.00 0.00 38 1007.4
20260504170344 22 113 16.1 19.3 0.00 0.00 0.00 37 1007.4
20260504160359 21 149 22.5 24.1 0.00 0.00 0.00 40 1007.8
20260504150821 20 180 11.3 16.1 0.00 0.00 0.00 42 1008.6
20260504150330 21 180 8.0 9.7 0.00 0.00 0.00 41 1008.6
20260504140821 18 255 9.7 11.3 0.00 0.03 0.00 47 1009.3
20260504140329 17 158 11.3 14.5 0.00 0.03 0.00 48 1009.3
20260504130322 15 113 8.0 11.3 0.00 0.03 0.00 54 1010.4
20260504120319 13 172 9.7 11.3 0.00 0.05 0.00 56 1010.7
20260504110331 10 104 6.4 8.0 0.00 0.05 0.00 66 1010.5
20260504100333 7 0.0 0.0 0.00 0.05 0.00 71 1010.8
20260504081824 7 68 3.2 3.2 0.00 0.05 0.00 72 1010.7
20260504081315 6 45 3.2 4.8 0.00 0.05 0.00 73 1010.7
20260504080825 6 68 1.6 1.6 0.00 0.05 0.00 73 1010.8
20260504080316 6 0.0 0.0 0.00 0.05 0.00 73 1010.8
20260504070336 6 113 3.2 3.2 0.00 0.05 0.00 73 1010.7
20260504050332 3 125 1.6 3.2 0.00 0.05 0.00 82 1010.7
20260504045823 3 0.0 0.0 0.00 0.05 0.00 82 1010.7
20260504045332 3 101 3.2 3.2 0.00 0.05 0.00 82 1010.7
20260504044822 3 225 1.6 3.2 0.00 0.05 0.00 82 1010.7
20260504044332 3 145 3.2 3.2 0.00 0.05 0.00 82 1010.7
20260504043843 3 90 3.2 6.4 0.00 0.05 0.00 81 1010.7
20260504043327 2 1.6 3.2 0.00 0.05 0.00 83 1010.7
20260504042830 2 0.0 0.0 0.00 0.05 0.00 83 1010.7
20260504042320 2 158 1.6 3.2 0.00 0.05 0.00 83 1010.7
20260504041848 2 0.0 0.0 0.00 0.05 0.00 83 1010.7
20260504041319 2 0.0 0.0 0.00 0.05 0.00 83 1010.7
20260504040829 3 0.0 0.0 0.00 0.05 0.00 82 1010.7
20260504040319 3 0.0 0.0 0.00 0.05 0.00 81 1010.7
20260504035822 3 1.6 4.8 0.00 0.05 0.05 81 1010.7
20260504035319 3 0.0 0.0 0.00 0.05 0.05 81 1010.4
20260504034817 3 0.0 0.0 0.00 0.05 0.05 80 1010.4
20260504034351 3 135 3.2 3.2 0.00 0.05 0.05 80 1010.5
20260504033822 3 1.6 4.8 0.00 0.05 0.05 80 1010.5
20260504033330 3 203 1.6 3.2 0.00 0.05 0.05 79 1010.3
20260504032821 3 0.0 0.0 0.00 0.05 0.05 79 1010.3
20260504032330 3 0.0 1.6 0.00 0.05 0.05 79 1010.3
20260504031836 3 0.0 0.0 0.00 0.05 0.05 79 1010.4
20260504031345 3 0.0 0.0 0.00 0.05 0.05 78 1010.4
20260504030836 3 0.0 0.0 0.00 0.05 0.05 78 1010.3
20260504030325 3 0.0 0.0 0.00 0.05 0.05 77 1010.3
20260504025816 4 0.0 0.0 0.00 0.05 0.05 76 1010.3
20260504025345 4 0.0 0.0 0.00 0.05 0.05 75 1010.3
20260504024816 4 0.0 0.0 0.00 0.05 0.05 74 1010.3
20260504024324 4 0.0 0.0 0.00 0.05 0.05 74 1010.2
20260504023828 4 0.0 0.0 0.00 0.05 0.05 74 1010.2
20260504023358 4 0.0 0.0 0.00 0.05 0.05 74 1010.2
20260504022827 5 0.0 0.0 0.00 0.05 0.05 73 1010.2
20260504022318 5 0.0 0.0 0.00 0.05 0.05 73 1010.2
20260504021821 5 0.0 0.0 0.00 0.05 0.05 73 1010.2
20260504021318 5 203 1.6 3.2 0.00 0.05 0.05 73 1010.2
20260504020815 5 180 3.2 4.8 0.00 0.05 0.05 73 1010.0
20260504020318 5 158 0.0 1.6 0.00 0.05 0.05 73 1010.0
20260504015828 5 0.0 0.0 0.00 0.05 0.05 74 1010.0
20260504015338 5 135 1.6 3.2 0.00 0.05 0.05 75 1010.0
20260504014827 5 0.0 0.0 0.00 0.05 0.05 75 1010.0
20260504014331 5 0.0 0.0 0.00 0.05 0.05 75 1009.8
20260504013821 5 0.0 0.0 0.00 0.05 0.05 74 1009.8
20260504013331 5 0.0 0.0 0.00 0.05 0.05 73 1009.8
20260504012821 5 0.0 0.0 0.00 0.05 0.05 72 1009.7
20260504012324 5 0.0 0.0 0.00 0.05 0.05 72 1009.7
20260504011817 6 0.0 0.0 0.00 0.05 0.05 70 1009.6
20260504011326 6 0.0 0.0 0.00 0.05 0.05 69 1009.6
20260504010824 6 0.0 0.0 0.00 0.05 0.05 69 1009.5
20260504010315 6 0.0 0.0 0.00 0.05 0.05 68 1009.5
20260504005819 -17 0.0 0.0 0.00 0.05 0.05 1009.5
20260504005327 7 0.0 0.0 0.00 0.05 0.05 63 1009.3
20260504004818 7 0.0 0.0 0.00 0.05 0.05 61 1009.3
20260504004327 7 0.0 0.0 0.00 0.05 0.05 60 1009.2